When you browse on this site, cookies collect data to enhance your experience and personalize the content and advertising you see.
Visit our Privacy Policy to learn more. By continuing to use the site, you agree to this use of cookies and data.
  • In Czech Republic
  • List of Countries
  • For 7 days
  • Water Temperature
  • Satellite Maps
  • Weather Map
  • Weather Widgets
  • user-avatar
    Login

    Hourly Weather Worksop

    Today, 19 February, Tuesday

    Time Temperature Precipitation Wind Pressure Humidity
    00:00 +5°C° 0 mm 5 mps 755 mmHg 85%
    01:00 +5°C° 0 mm 5 mps 756 mmHg 85%
    02:00 +5°C° 0 mm 5 mps 756 mmHg 84%
    03:00 +5°C° 0 mm 5 mps 756 mmHg 84%
    04:00 +5°C° 0 mm 5 mps 756 mmHg 85%
    05:00 +5°C° 0 mm 4 mps 756 mmHg 86%
    06:00 +5°C° 0 mm 4 mps 757 mmHg 87%
    07:00 +5°C° 0 mm 4 mps 757 mmHg 85%
    08:00 +5°C° 0 mm 4 mps 757 mmHg 83%
    09:00 +6°C° 0 mm 5 mps 758 mmHg 81%
    10:00 +6°C° 0 mm 5 mps 758 mmHg 76%
    11:00 +7°C° 0 mm 5 mps 758 mmHg 70%
    12:00 +8°C° 0 mm 5 mps 758 mmHg 65%
    13:00 +8°C° 0 mm 5 mps 758 mmHg 65%
    14:00 +8°C° 0 mm 4 mps 758 mmHg 65%
    15:00 +8°C° 0 mm 4 mps 758 mmHg 66%
    16:00 +8°C° 0 mm 4 mps 758 mmHg 69%
    17:00 +7°C° 0 mm 4 mps 758 mmHg 72%
    18:00 +7°C° 0 mm 4 mps 757 mmHg 76%
    19:00 +7°C° 0.1 mm 4 mps 757 mmHg 77%
    20:00 +7°C° 0.1 mm 5 mps 757 mmHg 78%
    21:00 +7°C° 0.1 mm 5 mps 757 mmHg 79%
    22:00 +5°C° 0.3 mm 6 mps 757 mmHg 81%
    23:00 +5°C° 0.3 mm 6 mps 757 mmHg 82%

    Tomorrow, 20 February, Wednesday

    Time Temperature Precipitation Wind Pressure Humidity
    00:00 +5°C° 0.3 mm 7 mps 757 mmHg 84%
    01:00 +5°C° 0.4 mm 7 mps 757 mmHg 84%
    02:00 +7°C° 0.4 mm 6 mps 757 mmHg 85%
    03:00 +7°C° 0.4 mm 6 mps 756 mmHg 86%
    04:00 +7°C° 0 mm 6 mps 756 mmHg 86%
    05:00 +7°C° 0 mm 6 mps 756 mmHg 85%
    06:00 +7°C° 0 mm 6 mps 756 mmHg 85%
    07:00 +7°C° 0 mm 6 mps 757 mmHg 84%
    08:00 +7°C° 0 mm 6 mps 757 mmHg 84%
    09:00 +7°C° 0 mm 6 mps 757 mmHg 83%
    10:00 +8°C° 0 mm 7 mps 758 mmHg 80%
    11:00 +9°C° 0 mm 7 mps 758 mmHg 78%
    12:00 +9°C° 0 mm 7 mps 758 mmHg 75%
    13:00 +10°C° 0 mm 7 mps 758 mmHg 74%
    14:00 +10°C° 0 mm 7 mps 758 mmHg 74%
    15:00 +10°C° 0 mm 7 mps 758 mmHg 73%
    16:00 +9°C° 0 mm 7 mps 758 mmHg 76%
    17:00 +9°C° 0 mm 6 mps 759 mmHg 78%
    18:00 +8°C° 0 mm 6 mps 759 mmHg 81%
    19:00 +8°C° 0 mm 6 mps 759 mmHg 82%
    20:00 +8°C° 0 mm 5 mps 760 mmHg 84%
    21:00 +7°C° 0 mm 5 mps 760 mmHg 85%
    22:00 +7°C° 0 mm 5 mps 761 mmHg 87%
    23:00 +7°C° 0 mm 5 mps 761 mmHg 88%

    Day after tomorrow, 21 February, Thursday

    Time Temperature Precipitation Wind Pressure Humidity
    00:00 +7°C° 0 mm 5 mps 761 mmHg 90%
    01:00 +7°C° 0 mm 5 mps 761 mmHg 90%
    02:00 +6°C° 0 mm 5 mps 762 mmHg 91%
    03:00 +6°C° 0 mm 4 mps 762 mmHg 92%
    04:00 +6°C° 0 mm 4 mps 762 mmHg 92%
    05:00 +6°C° 0 mm 4 mps 762 mmHg 93%
    06:00 +6°C° 0 mm 4 mps 763 mmHg 94%
    07:00 +6°C° 0 mm 4 mps 763 mmHg 93%
    08:00 +7°C° 0 mm 4 mps 764 mmHg 91%
    09:00 +7°C° 0 mm 5 mps 764 mmHg 90%
    10:00 +10°C° 0 mm 4 mps 764 mmHg 86%
    11:00 +11°C° 0 mm 4 mps 765 mmHg 81%
    12:00 +12°C° 0 mm 4 mps 765 mmHg 77%
    13:00 +12°C° 0 mm 4 mps 765 mmHg 76%
    14:00 +13°C° 0 mm 4 mps 766 mmHg 75%
    15:00 +13°C° 0 mm 4 mps 766 mmHg 74%
    16:00 +11°C° 0 mm 3 mps 766 mmHg 79%
    17:00 +10°C° 0 mm 3 mps 766 mmHg 83%
    18:00 +9°C° 0 mm 3 mps 767 mmHg 88%
    19:00 +9°C° 0 mm 3 mps 767 mmHg 89%
    20:00 +8°C° 0 mm 3 mps 768 mmHg 90%
    21:00 +8°C° 0 mm 3 mps 768 mmHg 91%
    22:00 +8°C° 0 mm 3 mps 768 mmHg 90%
    23:00 +7°C° 0 mm 3 mps 769 mmHg 90%

    22 February, Friday

    Time Temperature Precipitation Wind Pressure Humidity
    00:00 +7°C° 0 mm 3 mps 769 mmHg 90%
    01:00 +7°C° 0 mm 3 mps 770 mmHg 87%
    02:00 +7°C° 0 mm 3 mps 770 mmHg 84%
    03:00 +7°C° 0 mm 3 mps 770 mmHg 81%
    04:00 +5°C° 0 mm 3 mps 770 mmHg 80%
    05:00 +5°C° 0 mm 3 mps 770 mmHg 78%
    06:00 +5°C° 0 mm 3 mps 770 mmHg 77%
    07:00 +7°C° 0 mm 3 mps 771 mmHg 76%
    08:00 +7°C° 0 mm 3 mps 771 mmHg 75%
    09:00 +8°C° 0 mm 3 mps 771 mmHg 74%
    10:00 +10°C° 0 mm 3 mps 772 mmHg 72%
    11:00 +11°C° 0 mm 3 mps 772 mmHg 70%
    12:00 +13°C° 0 mm 4 mps 772 mmHg 67%
    13:00 +13°C° 0 mm 4 mps 772 mmHg 67%
    14:00 +14°C° 0 mm 4 mps 772 mmHg 67%
    15:00 +14°C° 0 mm 4 mps 771 mmHg 67%
    16:00 +13°C° 0 mm 3 mps 771 mmHg 74%
    17:00 +12°C° 0 mm 3 mps 772 mmHg 81%
    18:00 +10°C° 0 mm 3 mps 772 mmHg 88%
    19:00 +10°C° 0 mm 3 mps 772 mmHg 89%
    20:00 +9°C° 0 mm 3 mps 772 mmHg 90%
    21:00 +9°C° 0 mm 3 mps 772 mmHg 91%
    22:00 +8°C° 0 mm 3 mps 772 mmHg 92%
    23:00 +8°C° 0 mm 3 mps 772 mmHg 92%

    23 February, Saturday

    Time Temperature Precipitation Wind Pressure Humidity
    00:00 +8°C° 0 mm 3 mps 772 mmHg 93%
    01:00 +7°C° 0 mm 3 mps 772 mmHg 92%
    02:00 +7°C° 0 mm 3 mps 772 mmHg 90%
    03:00 +5°C° 0 mm 3 mps 771 mmHg 89%
    04:00 +5°C° 0 mm 3 mps 771 mmHg 88%
    05:00 +5°C° 0 mm 3 mps 771 mmHg 86%
    06:00 +4°C° 0 mm 3 mps 771 mmHg 85%
    07:00 +5°C° 0 mm 3 mps 771 mmHg 83%
    08:00 +7°C° 0 mm 3 mps 771 mmHg 82%
    09:00 +6°C° 0 mm 4 mps 771 mmHg 80%
    10:00 +8°C° 0 mm 4 mps 771 mmHg 76%
    11:00 +11°C° 0 mm 4 mps 770 mmHg 72%
    12:00 +12°C° 0 mm 4 mps 770 mmHg 67%
    13:00 +13°C° 0 mm 4 mps 770 mmHg 67%
    14:00 +13°C° 0 mm 4 mps 770 mmHg 66%
    15:00 +14°C° 0 mm 4 mps 769 mmHg 66%
    16:00 +13°C° 0 mm 4 mps 769 mmHg 72%
    17:00 +11°C° 0 mm 3 mps 769 mmHg 79%
    18:00 +10°C° 0 mm 3 mps 769 mmHg 86%
    19:00 +10°C° 0 mm 3 mps 770 mmHg 87%
    20:00 +9°C° 0 mm 3 mps 770 mmHg 88%
    21:00 +8°C° 0 mm 3 mps 770 mmHg 90%
    22:00 +8°C° 0 mm 3 mps 770 mmHg 90%
    23:00 +7°C° 0 mm 3 mps 770 mmHg 90%

    24 February, Sunday

    Time Temperature Precipitation Wind Pressure Humidity
    00:00 +7°C° 0 mm 2 mps 770 mmHg 91%
    01:00 +7°C° 0 mm 2 mps 770 mmHg 91%
    02:00 +6°C° 0 mm 2 mps 770 mmHg 91%
    03:00 +6°C° 0 mm 2 mps 770 mmHg 91%
    04:00 +7°C° 0 mm 1 mps 770 mmHg 90%
    05:00 +7°C° 0 mm 1 mps 770 mmHg 89%
    06:00 +6°C° 0 mm 1 mps 770 mmHg 89%
    07:00 +7°C° 0 mm 1 mps 771 mmHg 85%
    08:00 +8°C° 0 mm 1 mps 771 mmHg 82%
    09:00 +8°C° 0 mm 0 mps 771 mmHg 79%
    10:00 +9°C° 0 mm 0 mps 772 mmHg 74%
    11:00 +11°C° 0 mm 0 mps 772 mmHg 68%
    12:00 +12°C° 0 mm 0 mps 772 mmHg 63%
    13:00 +12°C° 0 mm 0 mps 772 mmHg 61%
    14:00 +13°C° 0 mm 0 mps 772 mmHg 60%
    15:00 +13°C° 0 mm 0 mps 772 mmHg 58%
    16:00 +12°C° 0 mm 0 mps 772 mmHg 63%
    17:00 +11°C° 0 mm 0 mps 772 mmHg 69%
    18:00 +10°C° 0 mm 1 mps 772 mmHg 74%
    19:00 +10°C° 0 mm 1 mps 772 mmHg 78%
    20:00 +9°C° 0 mm 1 mps 773 mmHg 82%
    21:00 +9°C° 0 mm 1 mps 773 mmHg 86%
    22:00 +8°C° 0 mm 1 mps 773 mmHg 87%
    23:00 +8°C° 0 mm 1 mps 773 mmHg 89%
    Show more